Camp Point, IL

11:08 PM CST on December 03, 2016 (GMT -0600)
Quincy Regional-Baldwin

Weather History for KUIN - January, 2013

Change the Weather History Date:

Tuesday, January 15, 2013

  Actual Average Record
Temperature  
Mean Temperature 19 °F 26 °F  
Max Temperature 28 °F 34 °F 65 °F (1949)
Min Temperature 10 °F 18 °F -16 °F (1972)
Degree Days  
Heating Degree Days 46 39  
Month to date heating degree days 546 581  
Since 1 July heating degree days 2594 2772  
Cooling Degree Days 0 0  
Month to date cooling degree days 0 0  
Year to date cooling degree days 0 0  
Moisture  
Dew Point 11 °F    
Average Humidity 67    
Maximum Humidity 83    
Minimum Humidity 50    
Precipitation  
Precipitation 0.00 in 0.05 in 0.64 in (1969)
Month to date precipitation 0.47 0.77  
Year to date precipitation 0.47 0.77  
Sea Level Pressure  
Sea Level Pressure 30.34 in    
Wind  
Wind Speed 3 mph (ENE)    
Max Wind Speed 8 mph    
Max Gust Speed 12 mph    
Visibility 10 miles    
Events      
T = Trace of Precipitation, MM = Missing Value Source: NWS Daily Summary

Daily Weather History Graph

Daily Weather History Graph

Search for Another Location

Airport or City:

Trip Planner

Search our weather history database for the weather conditions in past years. The results will help you decide how hot, cold, wet, or windy it might be!

Date:

Astronomy

Jan. 15, 2013 Rise Set
Actual Time 7:24 AM CST 5:04 PM CST
Civil Twilight 6:54 AM CST 5:34 PM CST
Nautical Twilight 6:21 AM CST 6:07 PM CST
Astronomical Twilight 5:49 AM CST 6:39 PM CST
Moon 9:30 AM CST (1/15) 9:54 PM CST (1/15)
Length of Visible Light 10h 39m
Length of Day
9h 40m
Waxing Crescent, 19% of the Moon is Illuminated
Jan 15
Waxing Crescent
Jan 18
First Quarter
Jan 26
Full
Feb 3
Last Quarter
Feb 10
New

Hourly Weather History & Observations

Time (CST) Temp. Windchill Dew Point Humidity Pressure Visibility Wind Dir Wind Speed Gust Speed Precip Events Conditions
12:54 AM 14.0 °F 8.2 °F 8.1 °F 77% 30.45 in 10.0 mi NE 3.5 mph - N/A   Clear
1:54 AM 14.0 °F 6.5 °F 8.1 °F 77% 30.44 in 10.0 mi NE 4.6 mph - N/A   Clear
2:54 AM 12.2 °F 4.3 °F 6.8 °F 79% 30.39 in 10.0 mi ENE 4.6 mph - N/A   Clear
3:54 AM 10.9 °F 1.4 °F 6.1 °F 81% 30.42 in 10.0 mi NNE 5.8 mph - N/A   Clear
4:54 AM 10.9 °F 2.9 °F 5.0 °F 77% 30.40 in 10.0 mi ENE 4.6 mph - N/A   Clear
5:54 AM 12.9 °F 6.9 °F 6.1 °F 74% 30.41 in 10.0 mi East 3.5 mph - N/A   Clear
6:54 AM 10.9 °F 2.9 °F 6.1 °F 81% 30.42 in 10.0 mi East 4.6 mph - N/A   Clear
7:54 AM 12.9 °F 3.8 °F 6.1 °F 74% 30.45 in 10.0 mi ESE 5.8 mph - N/A   Clear
8:54 AM 16.0 °F 7.4 °F 9.0 °F 74% 30.44 in 10.0 mi ESE 5.8 mph - N/A   Clear
9:54 AM 21.0 °F 13.4 °F 12.9 °F 71% 30.41 in 10.0 mi East 5.8 mph - N/A   Clear
10:54 AM 21.9 °F 15.7 °F 12.9 °F 68% 30.41 in 10.0 mi East 4.6 mph - N/A   Clear
11:54 AM 24.1 °F - 12.0 °F 60% 30.37 in 10.0 mi Calm Calm - N/A   Clear
12:54 PM 25.0 °F 20.7 °F 12.0 °F 58% 30.34 in 10.0 mi South 3.5 mph - N/A   Clear
1:54 PM 26.1 °F 21.9 °F 12.0 °F 55% 30.33 in 10.0 mi South 3.5 mph - N/A   Clear
2:54 PM 27.0 °F - 10.0 °F 49% 30.33 in 10.0 mi Calm Calm - N/A   Clear
3:54 PM 27.0 °F - 10.9 °F 51% 30.32 in 10.0 mi Calm Calm - N/A   Mostly Cloudy
4:54 PM 26.1 °F - 15.1 °F 63% 30.29 in 10.0 mi Calm Calm - N/A   Clear
5:54 PM 24.1 °F 18.2 °F 16.0 °F 71% 30.27 in 10.0 mi NNE 4.6 mph - N/A   Clear
6:54 PM 23.0 °F 18.4 °F 14.0 °F 68% 30.26 in 10.0 mi NNE 3.5 mph - N/A   Clear
7:54 PM 21.0 °F 16.2 °F 14.0 °F 74% 30.25 in 10.0 mi NW 3.5 mph - N/A   Clear
8:54 PM 21.0 °F - 15.1 °F 78% 30.22 in 10.0 mi Calm Calm - N/A   Mostly Cloudy
9:54 PM 19.0 °F - 14.0 °F 81% 30.22 in 10.0 mi Calm Calm - N/A   Partly Cloudy
10:54 PM 19.0 °F 13.9 °F 12.9 °F 77% 30.20 in 10.0 mi SSW 3.5 mph - N/A   Clear
11:54 PM 15.8 °F 10.2 °F 10.4 °F 79% 30.14 in 10.0 mi West 3.5 mph - N/A   Clear